This demonstration page uses our WeatherBlox Daily Observations layout. Learn more.

Hourly Observations for September 28, 2020

Temp ( °F °C ) Dew Point ( °F °C ) Humidity (%) Winds ( mph kmh ) Pressure ( in mb ) Visibility ( mi km ) Precip ( " mm )
12:15 am 00:15 Clear 44 6.6 34 1.3 69 69 WNW 7 11 30.15 1021 10 16.0934 0 0
12:35 am 00:35 Clear 46 7.6 34 1.2 64 64 WNW 7 11 30.16 1021 10 16.0934 0 0
1:55 am 01:55 Clear 48 9 34 1.1 58 58 NW 10 17 30.16 1021 10 16.0934 0 0
2:15 am 02:15 Clear 48 8.8 34 1.1 59 59 NW 10 17 30.15 1021 10 16.0934 0 0
2:35 am 02:35 Clear 48 9.1 33 0.8 56 56 WNW 12 19 30.16 1021 10 16.0934 0 0
2:55 am 02:55 Clear 48 9.1 33 0.7 56 56 NW 12 19 30.16 1021 10 16.0934 0 0
3:15 am 03:15 Clear 48 9.1 33 0.6 56 56 NW 12 19 30.16 1021 10 16.0934 0 0
3:35 am 03:35 Clear 48 9 33 0.5 56 56 NW 13 20 30.16 1021 10 16.0934 0 0
3:55 am 03:55 Clear 49 9.2 33 0.3 54 54 NW 13 20 30.16 1021 10 16.0934 0 0
4:15 am 04:15 Clear 48 9.1 32 0.1 54 54 NW 13 20 30.16 1021 10 16.0934 0 0
4:35 am 04:35 Clear 48 9.1 32 0.1 54 54 NW 13 20 30.16 1021 10 16.0934 0 0
4:55 am 04:55 Clear 48 8.7 32 0.1 55 55 NW 13 20 30.15 1021 10 16.0934 0 0
5:15 am 05:15 Clear 47 8.5 32 0.1 56 56 NW 12 19 30.16 1021 10 16.0934 0 0
5:35 am 05:35 Clear 47 8.2 32 0.1 57 57 NW 12 19 30.17 1022 10 16.0934 0 0
5:55 am 05:55 Clear 46 7.9 32 0 58 58 NW 12 19 30.18 1022 10 16.0934 0 0
6:15 am 06:15 Clear 46 7.7 32 0 59 59 NW 10 17 30.18 1022 10 16.0934 0 0
6:35 am 06:35 Clear 46 7.6 32 0 59 59 NW 12 19 30.19 1022 10 16.0934 0 0
6:55 am 06:55 Clear 46 7.5 32 0 59 59 NW 12 19 30.2 1023 10 16.0934 0 0
7:15 am 07:15 Clear 46 7.6 32 0 59 59 NW 10 17 30.2 1023 10 16.0934 0 0
7:35 am 07:35 Sunny 46 7.6 32 0 59 59 NW 10 17 30.21 1023 10 16.0934 0 0
7:55 am 07:55 Sunny 46 7.6 32 0.1 59 59 NW 12 19 30.23 1024 10 16.0934 0 0
8:15 am 08:15 Sunny 47 8.3 32 0.2 57 57 NW 12 19 30.24 1024 10 16.0934 0 0
8:35 am 08:35 Sunny 49 9.2 33 0.3 54 54 NW 13 20 30.23 1024 10 16.0934 0 0
8:55 am 08:55 Sunny 50 10.1 33 0.4 51 51 NW 14 22 30.23 1024 10 16.0934 0 0
9:15 am 09:15 Sunny 52 11 33 0.3 48 48 NW 14 22 30.22 1023 10 16.0934 0 0
9:35 am 09:35 Sunny 53 11.8 33 0.3 45 45 NW 14 22 30.22 1023 10 16.0934 0 0
9:55 am 09:55 Sunny 54 12.2 33 0.3 44 44 NW 14 22 30.22 1023 10 16.0934 0 0
10:15 am 10:15 Sunny 55 12.9 33 0.6 43 43 NW 14 22 30.23 1024 10 16.0934 0 0
10:35 am 10:35 Sunny 57 14 34 1 41 41 NW 14 22 30.22 1023 10 16.0934 0 0
10:55 am 10:55 Sunny 58 14.6 33 0.6 39 39 NNW 14 22 30.2 1023 10 16.0934 0 0
11:15 am 11:15 Sunny 60 15.5 33 0.5 36 36 NW 16 26 30.19 1023 10 16.0934 0 0
11:35 am 11:35 Sunny 61 16.2 33 0.5 35 35 NNW 13 20 30.19 1022 10 16.0934 0 0
11:55 am 11:55 Partly Cloudy 62 16.6 32 0 33 33 NW 22 35 30.18 1022 10 16.0934 0 0
12:15 pm 12:15 Partly Cloudy 62 16.9 32 0 32 32 NNW 20 31 30.16 1021 10 16.0934 0 0
12:35 pm 12:35 Partly Cloudy 63 17.2 32 0 31 31 NW 18 30 30.16 1021 10 16.0934 0 0
12:55 pm 12:55 Partly Cloudy 64 17.5 32 -0.1 31 31 NW 20 31 30.15 1021 10 16.0934 0 0
1:15 pm 13:15 Partly Cloudy 64 17.7 32 0 30 30 NW 18 30 30.15 1021 10 16.0934 0 0
1:35 pm 13:35 Sunny 64 17.9 31 -0.5 29 29 NW 22 35 30.12 1020 10 16.0934 0 0
1:55 pm 13:55 Sunny 64 18 30 -1.2 27 27 NNW 23 37 30.12 1020 10 16.0934 0 0
2:15 pm 14:15 Sunny 65 18.3 31 -0.8 28 28 NW 21 33 30.12 1020 10 16.0934 0 0
2:35 pm 14:35 Partly Cloudy 65 18.4 31 -0.6 28 28 NNW 18 30 30.1 1019 10 16.0934 0 0
2:55 pm 14:55 Sunny 66 18.8 32 -0.2 28 28 NW 20 31 30.09 1019 10 16.0934 0 0
3:15 pm 15:15 Sunny 65 18.5 30 -1.1 27 27 NNW 18 30 30.08 1019 10 16.0934 0 0
3:35 pm 15:35 Sunny 66 18.7 31 -0.7 27 27 NNW 15 24 30.09 1019 10 16.0934 0 0
3:55 pm 15:55 Sunny 66 18.9 30 -0.9 26 26 NW 16 26 30.08 1018 10 16.0934 0 0
4:15 pm 16:15 Partly Cloudy 66 18.7 30 -1.2 26 26 NNW 22 35 30.07 1018 10 16.0934 0 0
4:35 pm 16:35 Partly Cloudy 65 18.6 30 -1.2 26 26 NNW 22 35 30.07 1018 10 16.0934 0 0
4:55 pm 16:55 Sunny 65 18.6 30 -1.1 26 26 NNW 23 37 30.06 1018 10 16.0934 0 0
5:15 pm 17:15 Sunny 66 18.7 30 -1 27 27 NNW 15 24 30.07 1018 10 16.0934 0 0
5:35 pm 17:35 Sunny 65 18.5 29 -1.5 26 26 NNW 17 28 30.06 1018 10 16.0934 0 0
5:55 pm 17:55 Sunny 65 18.2 30 -0.9 28 28 NNW 14 22 30.06 1018 10 16.0934 0 0
6:15 pm 18:15 Sunny 64 17.8 30 -1.2 28 28 NNW 16 26 30.07 1018 10 16.0934 0 0
6:35 pm 18:35 Sunny 64 17.5 30 -1.2 28 28 NNW 14 22 30.07 1018 10 16.0934 0 0
6:55 pm 18:55 Sunny 62 16.8 30 -1 30 30 NNW 8 13 30.07 1018 10 16.0934 0 0
7:15 pm 19:15 Sunny 60 15.7 30 -1 32 32 NNW 7 11 30.08 1019 10 16.0934 0 0
7:35 pm 19:35 Clear 58 14.4 31 -0.8 35 35 NNW 6 9 30.1 1019 10 16.0934 0 0
7:55 pm 19:55 Clear 56 13.4 31 -0.5 39 39 Calm 30.11 1020 10 16.0934 0 0
8:15 pm 20:15 Clear 54 12 32 0 44 44 NW 3 6 30.13 1020 10 16.0934 0 0
8:35 pm 20:35 Clear 52 11 32 0 47 47 WNW 3 6 30.13 1020 10 16.0934 0 0
8:55 pm 20:55 Clear 49 9.6 33 0.4 53 53 WNW 5 7 30.16 1021 10 16.0934 0 0
9:15 pm 21:15 Clear 48 9.1 32 0.2 54 54 WNW 6 9 30.16 1021 10 16.0934 0 0
9:35 pm 21:35 Clear 47 8.5 32 0 55 55 WNW 5 7 30.17 1022 10 16.0934 0 0
9:55 pm 21:55 Clear 48 9 32 0 54 54 WNW 6 9 30.15 1021 10 16.0934 0 0
10:15 pm 22:15 Clear 47 8.6 32 0 55 55 WNW 6 9 30.17 1022 10 16.0934 0 0
10:35 pm 22:35 Clear 45 7.1 32 0 61 61 WNW 6 9 30.18 1022 10 16.0934 0 0
10:55 pm 22:55 Clear 43 6.2 32 0 65 65 WNW 6 9 30.19 1022 10 16.0934 0 0
11:15 pm 23:15 Clear 44 6.4 32 0 64 64 WNW 6 9 30.21 1023 10 16.0934 0 0
11:35 pm 23:35 Clear 46 7.8 32 -0.1 58 58 W 9 15 30.19 1022 10 16.0934 0 0
11:55 pm 23:55 Clear 46 7.6 31 -0.5 57 57 W 7 11 30.18 1022 10 16.0934 0 0

Powered by AerisWeather